Wetbulb
53.83 53.89 53.80 53.93 53.82 53.86 53.67 53.86 53.86 54.01 54.11 54.26 54.35 54.39 54.84 55.22 55.01 51.70 47.45 53.40 57.71 60.35 60.99 56.01 58.47 56.81 54.60 55.93 58.17 57.01 47.85 45.49 45.67 46.07 47.64 52.53 51.78 55.79 57.38 55.81 59.30 61.19 61.86 67.05 71.47
53.05 53.28 53.32 53.32 53.15 53.08 53.16 53.18 53.33 53.46 53.63 53.97 54.05 53.98 53.78 54.15 50.60 48.05 55.41 61.09 62.25 63.04 57.14 54.10 51.08 55.38 50.65 52.29 55.89 53.45 48.91 47.40 50.81 50.92 49.65 51.80 52.26 53.45 53.78 53.32 54.10 57.34 60.35 65.56 70.54
53.18 52.87 52.87 52.92 52.86 52.81 52.89 52.90 53.20 53.29 53.38 53.55 53.57 53.32 53.38 53.13 46.79 51.17 61.12 61.14 63.34 61.50 55.29 55.93 54.34 51.98 50.61 51.30 53.28 53.67 49.44 51.97 52.22 53.60 54.13 52.52 52.05 54.18 52.67 50.32 52.76 53.02 55.76 60.35 67.12
52.66 52.67 52.63 52.60 52.53 52.57 52.76 52.90 53.03 53.39 53.47 53.47 53.29 53.41 53.65 50.99 40.48 58.70 61.31 62.06 64.26 58.68 54.86 52.53 51.71 49.05 48.88 48.82 51.24 49.21 52.73 53.12 53.09 54.19 54.05 53.02 55.01 52.76 52.47 52.00 55.01 55.26 56.20 57.46 61.50
51.92 52.20 52.22 52.13 52.19 52.31 52.39 52.61 52.86 53.04 52.99 53.10 53.41 53.72 51.76 45.91 45.76 53.90 61.44 59.77 58.38 56.62 53.96 52.09 50.11 48.77 46.77 50.23 51.50 48.61 49.98 52.59 53.98 53.36 52.99 53.74 52.82 52.95 52.73 54.25 55.60 55.60 56.00 55.88 59.22
51.74 51.61 51.74 51.80 51.82 52.59 53.01 53.03 53.17 53.22 53.26 53.14 53.78 53.86 48.11 40.16 52.89 54.11 53.30 54.83 56.62 56.43 54.83 55.25 52.68 52.69 49.65 49.46 50.12 52.02 51.37 51.39 52.91 53.18 52.99 51.25 51.82 53.11 53.14 55.64 54.75 54.35 54.61 55.77 56.39
52.48 52.12 51.37 51.47 52.31 52.74 52.84 52.74 52.67 53.44 53.59 54.16 54.10 52.03 45.62 45.04 53.53 53.61 53.02 52.14 55.23 56.55 54.36 55.60 55.92 52.93 52.08 49.46 52.59 51.82 49.53 51.00 51.94 52.45 51.93 53.12 49.43 50.16 53.82 54.69 54.53 54.32 54.50 55.10 56.93
52.16 51.95 51.90 52.32 52.76 53.01 53.11 52.98 52.82 53.40 53.86 54.85 54.84 51.04 42.49 52.83 54.30 52.91 53.76 51.80 53.73 53.68 52.29 53.66 55.84 53.94 52.00 52.67 51.01 48.97 49.22 45.89 50.27 51.66 52.23 51.76 45.88 51.20 53.80 53.16 53.15 54.29 54.10 54.77 55.63
51.59 51.61 51.88 51.84 52.45 52.57 52.71 52.49 53.48 53.85 54.48 55.14 51.30 49.26 44.27 56.15 50.90 53.49 53.94 49.86 51.02 51.88 53.72 54.15 53.16 50.90 51.63 47.36 44.73 46.67 43.10 44.76 47.02 51.33 51.01 50.01 47.55 51.39 53.75 53.50 53.09 54.58 54.68 54.73 55.60
51.48 51.27 51.44 51.80 52.28 52.39 52.10 52.38 54.00 54.92 54.67 54.80 53.02 45.11 49.05 46.64 49.88 50.98 54.84 53.48 49.22 48.84 48.34 48.91 48.67 46.46 47.55 45.86 38.77 41.75 42.38 44.79 44.98 48.69 49.74 48.24 48.23 50.70 52.96 52.72 53.05 54.18 54.47 55.17 55.74
50.77 51.32 51.30 51.55 52.01 51.85 51.40 51.59 48.83 46.53 49.05 45.20 44.33 44.46 45.20 49.17 51.90 50.40 51.64 49.92 51.34 48.01 41.08 44.56 39.58 39.55 44.60 46.81 46.93 45.98 44.57 43.63 46.68 50.54 48.57 48.88 48.37 49.85 52.38 53.09 52.04 53.65 54.10 55.09 56.12
51.04 51.61 51.57 51.59 51.78 51.93 51.78 49.22 48.05 49.10 42.02 47.46 47.78 47.38 50.98 52.11 46.42 49.66 53.14 45.22 44.66 40.08 44.71 42.64 37.06 41.97 45.41 46.41 45.71 45.47 43.97 44.47 47.68 49.98 49.70 49.40 48.67 50.85 51.86 52.62 53.13 53.89 54.60 55.20 56.25
50.88 50.99 51.32 51.47 51.56 52.27 51.94 48.89 52.32 52.95 41.86 43.74 48.36 47.63 47.28 48.03 44.29 45.74 47.38 45.25 41.73 39.90 40.62 38.48 42.00 44.59 42.58 42.00 42.29 43.81 43.11 44.23 44.64 49.01 50.31 49.30 47.74 49.25 51.29 53.04 53.94 54.25 55.59 56.20 56.39
50.51 50.69 50.94 51.12 50.23 52.39 49.69 51.49 53.09 53.45 35.82 39.62 41.90 47.02 48.72 47.42 43.16 50.13 49.83 44.74 42.57 38.68 41.23 41.01 44.16 42.88 41.95 40.61 42.52 39.49 46.00 46.08 45.73 45.22 42.19 49.23 40.74 48.41 49.62 51.14 53.10 53.83 54.54 55.43 56.82
50.40 50.86 50.92 50.16 50.13 49.49 50.00 52.90 54.49 49.87 24.72 41.57 43.48 51.18 48.65 44.52 46.17 45.75 50.73 47.46 40.59 39.60 41.04 38.43 41.40 41.48 39.94 41.60 43.64 41.49 46.60 45.49 45.41 44.55 45.11 45.69 42.13 45.80 50.01 48.94 51.20 53.49 54.22 55.49 56.70
50.04 50.42 50.44 52.58 53.04 51.34 52.62 54.75 51.77 35.46 25.52 37.99 43.69 42.60 43.39 44.47 44.43 46.35 45.70 48.48 47.78 41.14 41.97 41.73 46.17 44.46 43.46 45.87 45.64 45.65 43.85 44.71 45.47 44.14 37.64 43.79 43.29 43.25 46.37 49.26 51.93 54.12 54.39 55.25 56.01
49.54 49.46 49.49 52.72 48.81 53.08 54.02 51.20 36.74 29.49 40.68 36.38 38.16 41.72 40.76 40.18 41.74 43.10 41.57 39.98 37.31 34.59 33.86 38.36 40.95 44.43 45.99 42.22 44.95 44.78 41.01 35.20 33.17 34.80 34.52 44.30 43.17 45.19 49.89 51.83 53.30 53.84 54.71 55.57 56.74
48.71 48.28 53.07 54.53 54.02 54.60 52.13 42.61 30.39 36.02 36.07 41.11 40.06 40.50 37.82 40.30 40.29 41.08 38.60 36.61 43.18 40.31 36.65 32.55 33.38 42.12 45.74 43.31 41.56 40.89 41.64 36.07 28.66 31.25 35.65 43.95 40.40 44.90 51.87 54.12 55.19 55.86 55.74 56.37 56.57
47.93 54.58 54.40 53.22 54.56 53.99 47.01 35.55 33.32 36.16 39.31 37.61 38.77 36.35 35.75 38.74 38.71 38.80 37.82 35.59 39.63 39.95 36.03 35.24 35.34 44.24 45.11 46.43 44.43 40.89 37.43 44.40 39.55 41.52 38.07 41.39 44.97 48.72 51.66 53.09 54.70 54.69 55.68 55.22 56.57
48.32 51.30 51.68 54.64 55.43 51.22 43.49 33.23 37.77 41.70 41.61 40.56 32.96 36.95 32.64 35.40 35.45 36.55 36.65 40.35 38.24 41.80 41.51 38.99 33.40 41.72 43.52 44.59 46.62 43.15 45.46 38.06 40.29 32.07 32.34 39.12 40.71 41.95 47.68 50.64 53.46 56.91 56.20 55.93 56.51
50.48 48.26 52.36 54.80 54.69 46.67 40.73 38.03 40.04 43.60 43.47 39.06 36.45 35.58 36.23 35.07 35.81 35.52 36.85 40.72 41.38 40.07 41.57 40.48 37.38 36.91 39.33 39.50 40.19 41.77 38.87 42.57 43.38 40.54 34.92 35.35 40.26 49.26 50.12 52.81 54.94 55.92 57.50 60.07 61.90
49.23 43.95 52.89 54.23 44.07 43.32 38.94 40.68 41.28 41.89 44.22 41.89 41.29 38.39 36.85 36.94 35.82 35.36 35.38 38.38 42.90 41.12 36.17 38.73 36.24 33.61 36.32 43.35 46.65 44.84 40.39 41.87 37.34 36.58 40.60 40.99 42.85 54.70 53.28 56.41 55.82 54.21 56.42 59.51 61.46
46.28 46.88 52.84 51.84 38.59 38.59 42.09 41.19 42.48 41.18 41.15 40.31 38.23 40.29 40.79 37.69 32.56 36.11 37.48 42.33 42.72 40.84 37.52 37.62 34.46 32.35 36.07 40.38 44.35 41.54 43.02 43.24 45.45 44.17 39.67 38.22 42.64 51.94 52.96 52.36 53.46 53.78 56.21 57.99 59.40
46.58 40.95 46.32 47.19 45.89 41.50 40.39 39.01 39.49 43.71 42.53 42.15 40.65 41.36 38.76 36.65 37.79 34.65 35.65 40.61 42.83 41.53 42.46 40.36 35.33 33.03 32.37 35.23 41.56 39.07 40.08 43.80 43.05 37.79 39.83 40.01 44.42 46.88 48.15 48.54 50.95 53.28 55.17 56.32 57.84
45.54 41.26 42.35 37.80 39.40 40.89 42.83 42.08 38.53 36.97 42.40 43.02 40.59 39.04 37.30 33.40 34.93 35.53 38.19 38.17 40.17 43.21 40.77 37.02 33.01 35.66 37.83 38.95 40.51 40.63 40.43 42.45 41.56 42.50 39.21 43.40 44.83 46.14 47.15 48.23 50.67 52.72 54.09 54.85 55.36
41.64 39.46 41.59 39.25 42.11 41.76 42.23 39.76 38.52 39.60 39.12 39.28 37.69 39.82 39.68 36.30 35.70 34.05 36.89 36.88 35.65 39.74 36.25 35.64 32.17 34.91 35.74 41.06 42.62 39.80 42.15 42.84 44.46 41.93 41.72 46.06 44.88 48.61 49.54 50.42 50.26 50.50 51.09 51.11 52.00
46.20 46.31 42.53 38.92 41.29 40.19 39.90 38.94 39.21 40.18 41.21 42.10 40.82 39.29 38.59 40.06 42.68 43.66 43.77 42.92 40.25 37.07 35.03 32.59 34.22 34.20 36.99 42.94 42.56 37.42 41.85 42.79 44.53 45.54 44.42 41.15 45.04 47.74 47.52 48.21 48.75 49.21 49.56 49.74 50.58
MSLP
1019.59 1019.10 1018.63 1018.17 1017.72 1017.30 1016.90 1016.47 1016.01 1015.56 1015.06 1014.58 1014.09 1013.69 1013.34 1012.83 1011.91 1010.29 1007.94 1006.20 1006.21 1006.57 1007.24 1006.85 1005.54 1005.13 1005.36 1004.72 1003.56 1002.91 1001.62 999.35 997.98 997.01 996.15 995.27 994.03 993.24 993.31 993.58 993.65 994.17 994.56 995.65 996.69
1019.66 1019.15 1018.63 1018.12 1017.61 1017.11 1016.61 1016.16 1015.74 1015.28 1014.88 1014.47 1014.10 1013.73 1013.34 1012.93 1011.68 1008.73 1005.55 1005.35 1005.27 1005.81 1006.23 1006.10 1005.12 1004.16 1004.23 1003.39 1002.85 1001.81 1000.23 998.19 998.21 997.01 995.79 994.89 994.20 993.50 993.27 993.62 993.88 994.32 994.98 995.67 996.67
1019.58 1019.03 1018.52 1018.03 1017.55 1017.03 1016.48 1015.96 1015.45 1014.97 1014.56 1014.19 1013.92 1013.59 1013.43 1013.09 1010.49 1004.59 1004.32 1004.27 1004.05 1005.23 1005.19 1005.19 1004.94 1003.76 1002.99 1002.66 1001.64 1000.78 998.26 998.75 997.76 997.05 996.06 994.87 994.13 993.63 993.25 993.83 994.50 994.98 995.47 995.75 996.62
1019.57 1018.95 1018.34 1017.77 1017.20 1016.63 1016.12 1015.55 1014.98 1014.43 1014.02 1013.83 1013.55 1013.48 1013.34 1012.76 1008.33 1003.83 1004.49 1004.40 1004.17 1004.77 1005.01 1004.58 1004.04 1003.26 1001.93 1000.96 1000.86 999.79 998.87 998.59 997.76 996.69 996.03 995.09 994.42 993.67 993.54 994.42 995.04 995.37 995.71 995.85 996.28
1019.45 1018.80 1018.14 1017.45 1016.79 1016.11 1015.49 1014.86 1014.39 1013.96 1013.61 1013.38 1013.28 1013.31 1013.01 1010.64 1006.08 1004.59 1004.14 1004.30 1004.64 1004.47 1004.03 1003.78 1003.39 1002.61 1000.85 1000.20 999.92 998.60 998.34 998.16 997.78 997.14 996.25 995.85 994.84 994.40 994.22 994.46 994.90 995.32 995.58 995.80 995.91
1019.33 1018.75 1018.08 1017.28 1016.51 1015.71 1014.84 1014.03 1013.44 1012.99 1012.64 1012.63 1012.61 1012.78 1012.37 1008.88 1004.92 1003.77 1002.87 1003.00 1003.70 1003.60 1003.00 1002.81 1002.02 1001.52 1000.36 999.50 998.31 998.13 998.02 997.40 996.99 996.56 996.24 995.84 995.30 994.88 994.95 995.07 995.13 995.72 995.67 995.73 995.92
1019.06 1018.45 1017.75 1016.96 1016.08 1015.16 1014.23 1013.25 1012.36 1011.91 1011.76 1011.50 1011.52 1011.93 1010.85 1006.55 1004.53 1003.44 1002.91 1002.58 1002.18 1002.17 1001.69 1001.51 1001.16 1000.42 999.95 998.71 998.15 997.71 997.19 996.55 995.90 995.94 995.79 996.11 995.31 994.22 995.23 995.64 995.49 995.57 995.91 996.02 996.33
1018.94 1018.22 1017.43 1016.57 1015.58 1014.66 1013.61 1012.47 1011.40 1010.94 1011.02 1010.54 1010.36 1010.49 1008.39 1005.11 1004.56 1003.80 1003.31 1002.85 1002.50 1001.41 1001.35 1001.09 1000.56 1000.08 999.33 998.83 998.03 996.99 996.98 995.46 994.61 995.32 995.51 996.17 993.40 994.75 995.31 995.49 995.45 995.61 995.93 996.29 996.48
1018.70 1017.85 1017.02 1016.10 1015.01 1014.00 1013.10 1011.61 1010.22 1009.25 1010.19 1009.94 1009.78 1008.91 1006.12 1002.89 1003.21 1002.25 1002.17 1001.82 1001.54 1001.71 1000.85 1000.58 1000.53 999.86 999.78 998.92 997.93 996.68 994.69 994.38 994.71 994.43 995.00 994.86 992.24 994.88 994.73 994.92 995.30 995.60 996.10 996.45 996.78
1018.39 1017.51 1016.33 1015.39 1014.26 1013.38 1012.37 1010.52 1008.33 1007.98 1008.91 1008.61 1008.43 1008.56 1004.83 1002.83 1001.50 1001.40 1001.30 1001.15 1001.24 1000.89 1001.03 1000.91 1000.81 999.98 998.97 998.31 995.63 994.82 994.49 993.95 993.67 993.96 993.90 993.68 993.41 994.60 994.22 994.19 994.49 995.17 995.87 996.23 996.42
1018.01 1017.04 1015.92 1014.90 1013.60 1012.63 1011.94 1009.69 1007.11 1006.62 1006.68 1007.12 1006.24 1005.43 1003.47 1002.20 1001.40 1000.72 1000.06 1000.78 1001.16 1000.71 1000.39 1000.49 1000.60 999.11 997.58 997.28 996.69 995.69 994.72 993.97 993.50 992.83 993.10 992.53 993.30 993.49 993.77 993.62 994.02 994.16 995.02 995.57 995.84
1017.65 1016.55 1015.49 1014.13 1012.95 1011.93 1011.23 1008.95 1007.94 1007.74 1005.53 1005.92 1004.22 1003.41 1003.79 1003.02 1002.31 1001.10 1000.16 1000.32 1001.04 1001.03 999.77 999.60 999.03 999.00 998.52 998.07 997.37 996.30 995.09 993.61 992.89 992.70 992.49 992.15 992.01 992.63 993.07 993.06 993.36 993.74 994.22 994.80 995.54
1017.23 1015.98 1014.96 1013.44 1012.43 1010.92 1008.90 1008.01 1007.70 1007.82 1007.52 1004.69 1004.10 1002.66 1003.19 1003.59 1003.01 1001.09 1000.52 1000.25 1000.09 1000.11 1000.23 998.89 998.02 998.30 998.48 997.77 996.65 995.68 994.92 993.90 992.88 991.78 991.67 991.66 991.32 991.66 992.30 992.68 993.02 993.17 993.60 993.96 994.55
1016.93 1015.51 1014.38 1013.67 1011.30 1010.00 1007.95 1007.85 1007.66 1008.18 1007.21 1004.41 1004.27 1002.33 1002.76 1003.25 1002.48 1001.79 1001.95 1001.64 1000.51 999.83 999.82 999.33 997.61 996.76 996.78 996.79 996.31 994.80 994.65 994.35 993.35 992.11 990.74 990.74 990.46 990.94 991.81 992.29 992.24 992.39 992.80 993.28 993.77
1016.64 1015.56 1014.27 1013.65 1012.04 1009.32 1008.13 1007.40 1007.91 1009.11 1007.16 1003.94 1001.97 1001.19 1001.48 1002.49 1001.43 1001.07 1001.87 1001.37 1000.98 1000.00 1000.30 999.60 998.04 997.11 996.34 995.33 995.47 994.54 994.02 994.17 993.92 992.71 991.69 990.40 991.00 990.43 991.20 991.47 990.93 991.15 992.03 992.67 993.30
1016.03 1014.91 1014.41 1011.75 1010.35 1008.72 1007.83 1007.85 1008.60 1009.15 1005.83 1003.18 1002.77 1001.50 1001.19 1001.45 1001.21 1001.30 1002.54 1001.81 1001.12 1001.08 1000.56 999.01 998.01 996.86 996.78 995.39 994.68 994.66 994.44 993.95 993.93 993.27 991.96 991.00 990.56 990.40 989.97 989.43 989.93 990.58 991.14 992.15 992.81
1015.69 1014.19 1013.79 1012.26 1009.66 1008.23 1007.92 1008.25 1008.04 1007.27 1005.74 1004.83 1003.41 1002.47 1002.05 1001.95 1001.53 1001.61 1001.78 1002.03 1002.13 1002.04 1001.35 999.78 997.82 996.98 997.27 996.22 995.29 994.46 993.92 993.48 993.58 992.62 992.07 991.73 990.25 989.18 989.14 988.83 988.88 989.46 990.39 991.48 992.52
1015.27 1013.19 1011.04 1009.96 1009.19 1008.22 1007.44 1007.23 1006.98 1006.91 1006.62 1006.09 1004.74 1003.32 1002.35 1002.30 1002.28 1001.73 1001.74 1001.98 1000.52 1001.22 1001.09 1000.40 997.36 996.36 996.31 995.28 994.64 994.28 993.42 992.47 992.65 992.70 992.16 991.28 988.84 988.19 988.23 988.17 987.53 988.46 989.72 991.08 992.36
1014.51 1011.22 1009.39 1009.38 1008.87 1008.24 1007.11 1006.81 1008.04 1007.70 1007.24 1006.19 1005.26 1003.96 1003.49 1003.44 1003.05 1002.21 1002.19 1002.96 1002.74 1002.59 1002.04 1000.31 999.05 997.71 996.33 995.15 994.72 993.42 993.09 992.76 992.90 992.61 991.75 990.72 989.74 989.40 988.42 988.70 988.29 988.42 989.62 991.12 992.35
1014.57 1011.18 1009.15 1009.00 1008.51 1007.94 1007.74 1008.50 1008.17 1007.96 1007.42 1006.74 1006.18 1005.69 1004.93 1004.34 1003.65 1002.88 1002.18 1002.65 1003.20 1003.13 1003.16 1001.67 1000.05 998.23 997.67 997.20 994.03 993.07 992.77 992.58 992.69 992.05 991.13 990.31 989.84 989.16 988.95 989.61 990.42 991.15 990.99 991.90 992.81
1013.41 1009.98 1008.92 1008.61 1007.35 1007.71 1007.84 1008.41 1008.27 1007.91 1007.33 1006.98 1006.42 1006.35 1006.18 1005.16 1005.03 1004.01 1002.75 1002.43 1002.83 1002.90 1003.00 1002.35 1001.33 1000.16 998.48 996.75 994.99 993.10 992.59 992.49 992.87 992.82 991.85 990.39 989.76 989.90 989.50 990.28 992.17 994.30 994.97 995.03 995.00
1013.77 1009.90 1008.97 1008.74 1008.00 1008.95 1008.95 1008.96 1008.72 1007.87 1007.27 1006.92 1007.00 1006.93 1006.74 1006.37 1005.13 1004.29 1003.09 1002.91 1003.31 1003.72 1003.64 1003.51 1002.75 1000.46 998.02 995.90 994.67 992.89 993.68 993.51 992.07 992.71 992.41 991.57 991.69 991.65 989.38 991.27 994.09 996.68 997.43 997.75 997.88
1013.99 1010.28 1009.07 1009.48 1009.59 1009.81 1009.46 1009.32 1008.56 1007.81 1007.47 1007.26 1007.47 1007.17 1007.44 1006.99 1006.15 1004.60 1003.66 1003.02 1003.14 1003.50 1003.85 1003.99 1002.90 1000.34 997.18 996.16 994.89 993.44 993.13 993.37 992.80 993.46 993.09 993.22 994.57 995.45 993.86 995.24 996.95 997.67 998.98 999.61 999.95
1014.67 1011.09 1010.52 1010.45 1010.86 1010.73 1009.49 1009.11 1008.04 1008.17 1007.79 1007.86 1007.42 1007.56 1007.37 1006.89 1006.57 1005.31 1004.38 1003.35 1003.32 1003.44 1003.68 1004.48 1003.25 1001.66 998.81 997.52 995.78 994.45 993.20 992.73 993.20 993.63 994.00 995.19 996.74 997.88 997.75 998.09 999.00 999.65 1000.15 1000.76 1001.34
1015.50 1014.14 1015.03 1012.90 1012.27 1011.75 1009.93 1008.85 1008.80 1008.73 1008.50 1007.74 1007.62 1007.60 1007.57 1006.66 1005.87 1004.75 1004.22 1003.93 1003.79 1002.91 1003.65 1004.51 1003.30 1000.98 998.84 997.40 995.54 994.17 994.58 993.75 993.46 994.35 995.49 995.77 997.43 998.85 999.65 1000.25 1000.25 1000.85 1001.34 1001.95 1002.70
1017.97 1017.44 1016.66 1015.36 1013.19 1011.41 1009.96 1010.18 1009.82 1009.10 1009.38 1008.39 1008.51 1007.66 1007.17 1006.63 1006.36 1004.52 1004.44 1004.19 1004.31 1003.84 1004.27 1004.50 1003.01 1001.14 998.30 996.13 994.86 994.19 994.17 993.81 993.77 995.71 996.95 996.64 998.57 1000.05 1001.04 1001.64 1001.84 1002.26 1002.48 1003.12 1003.93
1019.15 1018.83 1017.67 1016.01 1013.31 1012.04 1011.37 1011.15 1010.41 1010.25 1009.62 1009.29 1008.54 1007.65 1006.25 1005.43 1004.50 1003.37 1002.97 1002.90 1003.58 1003.96 1004.15 1003.74 1002.69 1000.15 996.26 994.49 993.57 992.99 992.81 994.17 994.88 995.96 996.51 998.70 999.90 1001.19 1002.22 1002.99 1003.15 1003.35 1004.17 1004.47 1005.25
Wind_Speed
20 19 20 20 19 19 20 19 20 20 20 20 21 21 22 23 26 24 29 22 16 32 23 17 15 16 20 21 23 23 18 20 30 28 21 22 24 21 24 27 16 18 13 12 14
21 21 21 21 21 22 22 22 21 20 20 20 19 20 20 21 24 29 30 21 17 10 18 21 20 17 18 20 21 23 19 32 25 24 24 23 22 23 14 15 13 15 14 9 15
22 22 22 22 23 23 23 24 24 24 22 21 20 19 18 18 20 6 6 3 12 16 21 19 20 23 23 23 24 26 30 22 26 27 26 25 23 25 18 15 14 15 17 14 15
23 23 23 23 23 23 24 24 24 24 24 22 20 19 15 14 10 7 8 10 10 15 17 21 22 25 27 29 28 29 32 29 28 25 22 24 21 20 13 13 20 17 18 19 17
24 24 25 25 26 26 26 26 26 25 24 22 20 17 14 15 25 23 25 8 6 13 19 20 23 25 31 28 27 34 29 28 28 26 28 24 24 20 19 16 14 13 19 20 15
23 25 25 26 27 26 26 27 26 26 23 22 19 14 13 29 16 21 20 16 15 15 19 21 18 22 24 32 31 26 29 29 28 27 24 23 24 16 21 19 14 18 14 15 13
24 25 27 27 27 27 28 28 28 26 27 21 16 11 17 32 16 22 24 21 20 21 21 22 25 26 25 26 26 29 29 27 29 28 28 22 25 30 18 19 21 18 16 15 10
25 25 27 28 28 29 30 32 32 28 23 21 12 11 13 20 19 27 26 27 24 18 22 23 21 25 27 20 26 26 29 28 27 30 25 23 31 23 22 19 20 18 16 16 15
25 26 28 30 30 30 30 34 34 32 18 14 7 12 15 11 14 21 17 20 19 20 20 15 23 23 23 24 21 27 24 35 28 25 25 28 35 22 20 24 20 17 16 16 15
26 26 28 29 30 30 31 34 30 23 10 9 8 6 19 12 21 22 15 15 16 17 22 14 13 19 21 21 25 27 32 23 28 27 26 28 24 24 22 22 24 19 20 18 19
28 27 29 29 31 29 20 13 14 10 10 23 28 31 33 25 22 17 16 15 16 16 22 27 19 22 30 29 29 27 26 31 24 21 27 25 24 22 23 18 16 20 22 20 21
29 29 30 31 30 27 16 8 19 13 26 25 27 26 22 25 22 23 13 20 13 18 20 20 23 28 26 26 29 30 29 28 23 26 24 25 26 22 22 23 16 19 19 20 20
29 30 30 32 28 17 13 19 14 14 13 16 18 6 3 3 9 11 10 12 26 19 19 25 24 27 27 27 29 29 28 27 27 24 27 25 25 26 23 19 21 17 16 18 20
30 31 31 28 14 15 13 17 12 12 8 5 7 6 3 9 7 12 6 11 17 21 20 23 27 26 28 28 28 28 30 29 26 25 16 25 16 18 18 21 22 21 19 17 18
32 32 30 20 12 10 19 16 14 7 4 9 18 8 21 17 21 9 13 10 19 20 16 12 15 22 24 24 29 26 25 27 29 24 22 19 14 16 21 23 25 23 19 18 18
33 33 28 14 9 17 16 12 6 3 6 12 24 22 20 16 21 7 8 9 16 12 17 24 24 17 18 19 22 26 26 22 25 18 17 20 18 18 17 25 20 21 21 18 18
34 36 23 11 10 17 13 4 4 12 19 20 32 28 15 20 19 11 12 9 7 4 5 16 25 20 20 20 19 18 23 14 14 16 13 22 21 14 23 25 24 23 23 22 17
35 37 11 10 13 14 12 10 6 19 17 23 27 26 13 26 17 20 13 12 11 16 12 5 5 17 19 26 21 22 22 16 13 15 19 25 25 18 21 10 21 22 22 20 19
33 9 4 10 11 11 10 6 8 15 20 22 25 17 19 25 17 23 11 8 12 14 6 6 9 16 17 20 27 26 22 23 18 19 18 19 21 18 17 6 7 18 22 22 19
12 10 5 13 12 10 7 3 10 13 19 21 18 13 24 25 19 22 12 3 5 14 12 5 7 8 6 9 25 25 20 20 15 17 20 21 25 16 22 14 10 16 14 16 17
7 7 9 16 12 10 6 12 14 17 22 17 20 16 18 19 20 21 6 9 16 13 14 14 4 4 9 6 18 20 15 20 17 9 10 15 18 22 23 20 18 17 16 15 18
8 8 9 11 7 8 9 16 13 19 19 16 10 13 16 23 13 17 9 6 13 9 11 4 4 6 10 17 17 24 18 26 13 19 12 11 8 22 19 23 25 18 15 16 18
10 11 9 11 7 9 14 17 12 20 21 12 14 18 15 10 11 12 11 14 14 14 5 6 3 5 2 5 10 12 26 28 17 15 18 12 5 13 22 23 18 22 17 16 16
8 6 6 9 10 15 16 18 19 17 18 18 18 7 18 19 10 15 21 10 22 18 5 7 4 8 8 3 13 20 12 25 20 12 13 8 3 9 11 20 19 18 17 16 15
6 7 9 9 10 17 23 16 24 23 14 14 8 19 21 9 9 6 20 20 15 14 3 1 5 14 15 15 23 10 12 18 23 17 2 6 15 11 11 15 19 19 21 21 19
8 6 6 14 15 19 13 19 21 25 21 12 15 25 20 14 11 21 20 14 6 5 3 1 5 6 9 17 13 19 22 21 19 14 6 4 18 15 14 16 18 18 21 21 19
8 9 3 11 13 13 15 20 22 22 11 19 21 18 21 18 24 24 19 18 12 6 2 3 4 4 3 15 16 7 18 20 20 21 3 3 11 20 16 16 17 21 20 22 20
Wind_Direction
345 341 337 333 331 328 324 320 317 314 312 312 313 314 317 319 312 295 271 248 231 236 247 267 228 218 220 235 236 232 239 241 242 240 241 255 262 242 225 238 220 241 250 122 124
343 339 336 333 330 326 322 318 314 311 308 306 307 310 314 320 306 286 265 260 251 201 221 233 240 213 214 217 233 228 229 234 243 249 255 254 251 258 243 234 257 227 241 185 138
343 339 334 332 329 324 320 317 314 311 307 305 305 304 310 313 297 234 37 341 244 181 224 223 238 245 217 222 216 228 237 238 239 254 263 262 253 254 238 219 234 241 240 214 158
339 336 333 330 325 321 316 312 307 304 302 301 301 304 304 295 279 98 90 55 143 198 226 232 231 234 235 222 223 231 235 240 255 257 247 261 272 272 214 218 235 220 236 232 177
339 336 332 327 323 319 314 308 304 300 299 297 296 291 286 248 246 259 275 264 193 199 215 218 225 229 232 230 226 228 237 239 242 254 266 276 271 255 271 214 221 246 212 235 190
336 334 329 324 321 316 310 306 302 297 295 292 285 275 252 260 274 269 259 238 228 209 218 220 227 229 242 236 231 235 232 241 240 237 245 250 264 232 246 265 230 230 250 223 224
335 332 328 325 320 315 309 304 299 299 298 293 280 250 252 249 272 288 295 292 227 233 236 228 240 240 231 248 242 242 245 238 232 236 241 255 255 242 229 238 245 220 232 235 196
334 330 327 324 319 315 311 305 298 293 291 288 276 224 259 258 249 252 257 263 275 261 256 253 246 250 251 257 245 243 235 243 227 226 235 229 249 235 238 233 233 227 226 219 227
332 328 324 321 316 314 311 302 298 287 275 258 239 211 268 279 225 241 248 261 246 251 260 238 241 248 235 241 246 230 231 226 234 229 220 220 241 237 237 218 230 216 214 221 223
332 327 320 319 316 315 312 301 283 282 208 227 251 221 239 289 304 314 280 206 243 233 244 218 245 241 232 217 224 218 222 232 222 226 224 225 237 237 234 246 210 220 205 223 221
331 325 321 321 316 314 318 309 351 336 316 300 300 284 288 286 281 283 247 278 273 225 222 225 228 230 222 225 232 235 234 222 238 221 222 226 225 226 232 230 217 210 212 211 233
329 325 324 320 316 312 296 292 360 319 312 307 289 258 339 10 350 308 295 247 186 263 224 238 209 230 240 233 234 239 245 245 231 218 236 219 229 216 220 235 223 206 209 216 222
330 324 325 322 317 296 287 5 332 2 312 309 312 5 205 74 261 282 317 261 244 239 246 246 219 218 231 239 239 230 234 237 244 226 221 231 221 209 213 232 223 214 227 210 211
328 325 325 332 300 319 336 346 17 12 302 299 258 181 219 194 263 254 300 229 266 243 233 255 244 230 214 223 236 232 219 235 237 245 237 209 222 199 199 224 235 220 206 215 203
327 325 328 320 297 305 339 341 45 47 303 60 348 13 347 347 331 3 207 218 243 239 232 243 252 248 255 235 219 238 231 214 239 240 249 202 214 226 192 228 218 211 197 208 214
326 325 329 302 254 330 331 8 43 233 335 6 350 346 352 351 340 59 270 266 295 253 251 262 262 240 291 254 246 218 237 239 218 235 242 240 198 213 231 211 215 211 192 199 195
328 319 317 287 303 327 324 351 286 15 352 347 338 338 356 355 337 359 311 253 210 211 212 282 264 250 221 238 261 252 205 205 216 209 220 235 232 213 206 234 206 206 198 186 200
329 310 268 262 333 320 289 271 326 358 348 337 332 318 356 350 341 331 26 334 256 198 247 234 239 217 219 238 207 235 220 213 183 201 200 224 218 211 231 304 200 192 185 179 192
322 298 262 357 326 316 330 23 350 335 333 333 327 337 339 338 340 340 20 351 355 33 349 291 216 334 263 254 234 197 232 203 209 203 211 212 223 227 243 83 48 178 168 171 178
314 282 12 343 315 288 351 355 325 341 322 327 328 318 325 330 340 339 352 77 21 11 355 317 290 186 306 298 257 237 208 193 224 222 200 203 205 210 220 165 143 64 121 161 169
268 282 38 338 299 344 9 349 332 324 328 330 319 320 315 321 327 323 309 351 18 353 342 331 305 111 5 255 234 221 233 200 214 193 234 194 200 207 204 161 116 85 74 61 70
295 331 38 330 22 0 352 344 315 331 341 330 319 329 305 327 309 317 304 349 346 11 331 356 293 259 225 236 265 237 179 252 204 200 261 265 140 352 204 123 110 105 97 93 91
303 303 47 334 12 358 321 333 343 336 336 336 321 324 348 311 318 316 318 320 320 344 339 356 290 290 196 332 283 266 164 220 215 215 221 232 92 20 77 88 100 109 103 96 100
286 339 349 314 1 335 337 299 348 353 331 336 309 350 339 318 322 293 297 313 330 312 228 210 252 258 297 337 276 196 236 210 227 217 243 248 140 98 71 112 112 103 98 98 106
355 20 26 317 333 311 301 348 341 339 335 331 318 336 325 305 304 285 319 316 316 299 106 10 269 286 266 266 265 170 185 232 219 223 204 193 156 129 112 121 114 110 109 108 106
348 353 333 296 296 317 356 353 334 339 332 322 321 319 322 310 279 299 304 299 271 306 45 281 273 290 255 221 214 167 204 222 229 89 292 146 118 118 111 116 104 101 105 106 105
10 318 290 300 319 326 358 325 334 337 309 327 322 318 314 328 309 290 281 271 239 250 297 247 293 280 173 174 189 169 197 210 209 147 127 76 118 120 116 108 106 106 103 105 106